Flight Track Log - Related Links

Times and Time Zones

All times are in EST time to prevent confusion due to time zone crossing. See the SKW6492 flight status page for this flight to view local times or setup timezone preferences in your user account.

Time Position Orientation Groundspeed Altitude Reporting Facility
EST Latitude Longitude Course Direction KTS MPH feet Rate Location/Type
10:58PM 39.9167 -104.6833 346° North 192 221 7,200  Level Denver TRACON
10:59PM 39.9667 -104.6833 360° North 224 258 9,300 1,806 Climbing Denver TRACON
11:00PM 40.0286 -104.6614 15° North 262 302 10,300 1,371 Climbing Denver Center
11:01PM 40.2633 -104.8006 347° North  Level FlightAware Approximate
11:01PM 40.1125 -104.6719 355° North 305 351 11,700  Level Denver Center
11:02PM 40.3669 -104.8334 346° North  Level FlightAware Approximate
11:02PM 40.2028 -104.6942 349° North 326 375 14,000  Level Denver Center
11:03PM 40.4702 -104.8678 346° North  Level FlightAware Approximate
11:03PM 40.3050 -104.7219 348° North 352 405 16,100  Level Denver Center
11:04PM 40.4028 -104.7481 349° North 357 411 17,700 1,610 Climbing Denver Center
11:05PM 40.5067 -104.7742 349° North 381 438 19,400 1,356 Climbing Denver Center
11:07PM 40.7069 -104.8283 348° North 387 445 21,700 1,281 Climbing Salt Lake Center
11:08PM 40.8261 -104.8675 346° North 392 451 23,200 1,171 Climbing Salt Lake Center
11:09PM 40.9258 -104.9167 340° North 394 453 24,100 968 Climbing Salt Lake Center
11:09PM 40.9836 -104.9472 338° Northwest 401 461 24,700 968 Climbing Denver Center
11:10PM 41.0972 -105.0044 339° North 408 470 25,600 836 Climbing Denver Center
11:11PM 41.2011 -105.0544 340° North 413 475 26,400 683 Climbing Denver Center
11:12PM 41.3058 -105.1069 339° North 418 481 27,000 732 Climbing Denver Center
11:13PM 41.4286 -105.1667 340° North 419 482 27,900 885 Climbing Denver Center
11:14PM 41.5328 -105.2189 339° North 417 480 28,800 927 Climbing Denver Center
11:16PM 41.6175 -105.2950 326° Northwest 387 445 29,800 976 Climbing Denver Center
11:17PM 41.7103 -105.3936 322° Northwest 381 438 30,800 738 Climbing Denver Center
11:18PM 41.7872 -105.4753 322° Northwest 373 429 31,300 390 Climbing Denver Center
11:19PM 41.8778 -105.5761 320° Northwest 377 434 31,600 341 Climbing Denver Center
11:20PM 41.9583 -105.6622 322° Northwest 382 440 32,000 197 Climbing Denver Center
11:21PM 42.0419 -105.7525 321° Northwest 394 453 32,000  Level Denver Center
11:22PM 42.1408 -105.8611 321° Northwest 405 466 32,000  Level Denver Center
11:23PM 42.2281 -105.9561 321° Northwest 416 479 32,000  Level Denver Center
11:24PM 42.3158 -106.0519 321° Northwest 421 484 32,000  Level Denver Center
11:25PM 42.4192 -106.1664 321° Northwest 427 491 32,000  Level Denver Center
11:26PM 42.5083 -106.2644 321° Northwest 430 495 32,000  Level Denver Center
11:27PM 42.6117 -106.3789 321° Northwest 429 494 32,000  Level Denver Center
11:28PM 42.6986 -106.4778 320° Northwest 427 491 32,000  Level Denver Center
11:29PM 42.7881 -106.5764 321° Northwest 431 496 32,000  Level Denver Center
11:30PM 42.8908 -106.6931 320° Northwest 430 495 32,000  Level Denver Center
11:31PM 42.9778 -106.7931 320° Northwest 427 491 32,000  Level Denver Center
11:32PM 43.0669 -106.8931 321° Northwest 431 496 32,000  Level Denver Center
11:32PM 43.1336 -106.9692 320° Northwest 431 496 32,000  Level Salt Lake Center
11:33PM 43.2261 -107.0756 320° Northwest 433 498 32,000  Level Salt Lake Center
11:34PM 43.3178 -107.1808 320° Northwest 432 497 32,000  Level Salt Lake Center
11:35PM 43.4094 -107.2869 320° Northwest 432 497 32,000  Level Salt Lake Center
11:37PM 43.5003 -107.3911 320° Northwest 427 491 32,000  Level Salt Lake Center
11:38PM 43.5925 -107.4978 320° Northwest 431 496 32,000  Level Salt Lake Center
11:39PM 43.6819 -107.6036 319° Northwest 425 489 32,000  Level Salt Lake Center
11:40PM 43.7711 -107.7072 320° Northwest 421 484 32,000 -146 Level Salt Lake Center
11:41PM 43.8583 -107.8103 320° Northwest 415 478 31,700 -2,213 Descending Salt Lake Center
11:42PM 43.9653 -107.9375 319° Northwest 421 484 27,500 -3,756 Descending Salt Lake Center
11:43PM 44.0511 -108.0389 320° Northwest 408 470 24,000 -3,415 Descending Salt Lake Center
11:44PM 44.1356 -108.1408 319° Northwest 403 464 20,500 -3,541 Descending Salt Lake Center
11:45PM 44.2178 -108.2394 319° Northwest 398 458 16,800 -2,829 Descending Salt Lake Center
11:46PM 44.2944 -108.3317 319° Northwest 384 442 14,700 -1,951 Descending Salt Lake Center
11:47PM 44.3686 -108.4200 320° Northwest 369 425 12,800 -1,721 Descending Salt Lake Center
11:48PM 44.4422 -108.5086 319° Northwest 358 412 11,200 -1,328 Descending Salt Lake Center
11:49PM 44.5050 -108.5853 319° Northwest 329 379 10,100 -927 Descending Salt Lake Center
11:50PM 44.5589 -108.6492 320° Northwest 285 328 9,300 -537 Descending Salt Lake Center
11:51PM 44.6094 -108.7083 320° Northwest 260 299 9,000 -590 Descending Salt Lake Center
11:52PM 44.6544 -108.7583 322° Northwest 234 269 8,100 -738 Descending Salt Lake Center
11:53PM 44.6275 -108.8353 244° Southwest 194 223 7,500 -295 Descending Salt Lake Center
11:54PM 44.6019 -108.8806 232° Southwest 168 193 7,500 -341 Level Salt Lake Center
11:55PM 44.5767 -108.9256 232° Southwest 155 178 6,800 -780 Descending Salt Lake Center
11:56PM 44.5497 -108.9731 231° Southwest 153 176 5,900 -885 Descending Salt Lake Center

Login

Don't have an account? Register now (free) for customized features, flight alerts, and more!